| time (UTC) | temp C | wind direction | speed KPH | gust KPH | rain 1hr cm | rain 24hr cm | rain mn cm | humidity % | barometer mb |
| 20260506233005 | 13 | 84 | 0.0 | 3.2 | 0.00 | 0.00 | 0.00 | 73 | 1016.1 |
| 20260506231004 | 13 | 306 | 0.0 | 4.8 | 0.00 | 0.00 | 0.00 | 73 | 1016.2 |
| 20260506230504 | 13 | 270 | 1.6 | 6.4 | 0.00 | 0.00 | 0.00 | 73 | 1016.3 |
| 20260506225503 | 13 | 232 | 0.0 | 6.4 | 0.00 | 0.00 | 0.00 | 73 | 1016.3 |
| 20260506225003 | 13 | 225 | 0.0 | 6.4 | 0.00 | 0.00 | 0.00 | 73 | 1016.6 |
| 20260506224504 | 13 | 218 | 0.0 | 4.8 | 0.00 | 0.00 | 0.00 | 73 | 1016.5 |
| 20260506224004 | 13 | 212 | 0.0 | 4.8 | 0.00 | 0.00 | 0.00 | 73 | 1016.3 |
| 20260506223504 | 13 | 227 | 1.6 | 4.8 | 0.00 | 0.00 | 0.00 | 73 | 1016.5 |
| 20260506223005 | 13 | 229 | 1.6 | 6.4 | 0.00 | 0.00 | 0.00 | 74 | 1016.5 |
| 20260506222504 | 13 | 225 | 1.6 | 6.4 | 0.00 | 0.00 | 0.00 | 74 | 1016.2 |
| 20260506222004 | 13 | 225 | 1.6 | 6.4 | 0.00 | 0.00 | 0.00 | 74 | 1016.5 |
| 20260506221504 | 13 | 0 | 0.0 | 0.0 | 0.00 | 0.00 | 0.00 | 74 | 1016.2 |
| 20260506221004 | 13 | 0 | 0.0 | 0.0 | 0.00 | 0.00 | 0.00 | 74 | 1016.2 |
| 20260506220504 | 13 | 0 | 0.0 | 0.0 | 0.00 | 0.00 | 0.00 | 74 | 1016.2 |
| 20260506220005 | 13 | 0 | 0.0 | 0.0 | 0.00 | 0.00 | 0.00 | 74 | 1016.4 |
| 20260506215504 | 13 | 0 | 0.0 | 0.0 | 0.00 | 0.00 | 0.00 | 74 | 1016.5 |
| 20260506215005 | 13 | 0 | 0.0 | 0.0 | 0.00 | 0.00 | 0.00 | 74 | 1016.5 |
| 20260506214504 | 14 | 135 | 0.0 | 3.2 | 0.00 | 0.00 | 0.00 | 74 | 1016.2 |
| 20260506214004 | 14 | 98 | 1.6 | 4.8 | 0.00 | 0.00 | 0.00 | 74 | 1016.2 |
| 20260506213503 | 14 | 78 | 1.6 | 6.4 | 0.00 | 0.00 | 0.00 | 74 | 1016.3 |
| 20260506213004 | 14 | 67 | 1.6 | 6.4 | 0.00 | 0.00 | 0.00 | 74 | 1016.2 |
| 20260506212503 | 14 | 118 | 0.0 | 4.8 | 0.00 | 0.00 | 0.00 | 73 | 1016.4 |
| 20260506212004 | 14 | 135 | 0.0 | 4.8 | 0.00 | 0.00 | 0.00 | 73 | 1016.3 |
| 20260506211504 | 14 | 135 | 0.0 | 4.8 | 0.00 | 0.00 | 0.00 | 72 | 1016.3 |
| 20260506211004 | 15 | 114 | 1.6 | 6.4 | 0.00 | 0.00 | 0.00 | 71 | 1016.3 |
| 20260506210504 | 15 | 106 | 1.6 | 6.4 | 0.00 | 0.00 | 0.00 | 70 | 1016.5 |
| 20260506210005 | 15 | 90 | 0.0 | 3.2 | 0.00 | 0.00 | 0.00 | 69 | 1016.5 |
| 20260506205505 | 15 | 0 | 0.0 | 0.0 | 0.00 | 0.00 | 0.00 | 69 | 1016.5 |
| 20260506205004 | 15 | 150 | 0.0 | 1.6 | 0.00 | 0.00 | 0.00 | 68 | 1016.6 |
| 20260506204504 | 15 | 202 | 0.0 | 6.4 | 0.00 | 0.00 | 0.00 | 68 | 1016.4 |
| 20260506204004 | 15 | 195 | 1.6 | 6.4 | 0.00 | 0.00 | 0.00 | 68 | 1016.6 |
| 20260506203005 | 15 | 223 | 1.6 | 6.4 | 0.00 | 0.00 | 0.00 | 67 | 1016.7 |
| 20260506201504 | 16 | 181 | 0.0 | 4.8 | 0.00 | 0.00 | 0.00 | 65 | 1016.6 |
| 20260506201005 | 16 | 203 | 1.6 | 6.4 | 0.00 | 0.00 | 0.00 | 66 | 1016.6 |
| 20260506200504 | 16 | 218 | 1.6 | 6.4 | 0.00 | 0.00 | 0.00 | 66 | 1016.5 |
| 20260506200004 | 16 | 216 | 1.6 | 4.8 | 0.00 | 0.00 | 0.00 | 67 | 1016.3 |
| 20260506195504 | 16 | 216 | 1.6 | 4.8 | 0.00 | 0.00 | 0.00 | 66 | 1016.5 |
| 20260506195004 | 16 | 201 | 1.6 | 6.4 | 0.00 | 0.00 | 0.00 | 66 | 1016.4 |
| 20260506194504 | 16 | 199 | 1.6 | 6.4 | 0.00 | 0.00 | 0.00 | 66 | 1016.4 |
| 20260506193504 | 16 | 312 | 0.0 | 3.2 | 0.00 | 0.00 | 0.00 | 67 | 1016.4 |
| 20260506193004 | 16 | 310 | 0.0 | 6.4 | 0.00 | 0.00 | 0.00 | 67 | 1016.2 |
| 20260506192503 | 16 | 312 | 1.6 | 6.4 | 0.00 | 0.00 | 0.00 | 66 | 1016.2 |
| 20260506192003 | 16 | 311 | 3.2 | 6.4 | 0.00 | 0.00 | 0.00 | 66 | 1016.3 |
| 20260506191505 | 16 | 311 | 3.2 | 8.0 | 0.00 | 0.00 | 0.00 | 66 | 1016.0 |
| 20260506191003 | 17 | 314 | 1.6 | 8.0 | 0.00 | 0.00 | 0.00 | 65 | 1015.8 |
| 20260506190503 | 17 | 320 | 1.6 | 6.4 | 0.00 | 0.00 | 0.00 | 65 | 1015.7 |
| 20260506185504 | 17 | 331 | 3.2 | 8.0 | 0.00 | 0.00 | 0.00 | 65 | 1016.0 |
| 20260506185004 | 17 | 324 | 3.2 | 8.0 | 0.00 | 0.00 | 0.00 | 65 | 1015.6 |
| 20260506184004 | 17 | 303 | 4.8 | 9.7 | 0.00 | 0.00 | 0.00 | 65 | 1015.7 |
| 20260506183504 | 17 | 305 | 3.2 | 9.7 | 0.00 | 0.00 | 0.00 | 65 | 1015.7 |
| 20260506183005 | 17 | 309 | 1.6 | 6.4 | 0.00 | 0.00 | 0.00 | 65 | 1015.4 |
| 20260506182503 | 17 | 315 | 3.2 | 9.7 | 0.00 | 0.00 | 0.00 | 65 | 1015.4 |
| 20260506182003 | 17 | 311 | 3.2 | 9.7 | 0.00 | 0.00 | 0.00 | 65 | 1015.5 |
| 20260506181504 | 17 | 309 | 3.2 | 8.0 | 0.00 | 0.00 | 0.00 | 65 | 1015.4 |
| 20260506181003 | 17 | 316 | 3.2 | 8.0 | 0.00 | 0.00 | 0.00 | 65 | 1015.3 |
| 20260506180503 | 17 | 317 | 3.2 | 6.4 | 0.00 | 0.00 | 0.00 | 65 | 1015.2 |
| 20260506180005 | 17 | 320 | 3.2 | 6.4 | 0.00 | 0.00 | 0.00 | 65 | 1015.1 |
| 20260506175504 | 17 | 325 | 1.6 | 6.4 | 0.00 | 0.00 | 0.00 | 65 | 1015.2 |
| 20260506175004 | 17 | 317 | 1.6 | 6.4 | 0.00 | 0.00 | 0.00 | 65 | 1015.0 |
| 20260506174504 | 17 | 317 | 3.2 | 6.4 | 0.00 | 0.00 | 0.00 | 65 | 1015.0 |
| 20260506174004 | 17 | 332 | 3.2 | 6.4 | 0.00 | 0.00 | 0.00 | 65 | 1015.0 |
| 20260506173503 | 18 | 340 | 3.2 | 8.0 | 0.00 | 0.00 | 0.00 | 64 | 1015.0 |
| 20260506173005 | 18 | 341 | 3.2 | 8.0 | 0.00 | 0.00 | 0.00 | 64 | 1014.9 |
| 20260506172504 | 18 | 355 | 3.2 | 9.7 | 0.00 | 0.00 | 0.00 | 63 | 1015.0 |
| 20260506172004 | 18 | 18 | 3.2 | 9.7 | 0.00 | 0.00 | 0.00 | 62 | 1014.9 |
| 20260506171504 | 19 | 9 | 3.2 | 8.0 | 0.00 | 0.00 | 0.00 | 61 | 1014.9 |
| 20260506171004 | 19 | 1 | 3.2 | 8.0 | 0.00 | 0.00 | 0.00 | 60 | 1014.9 |
| 20260506170503 | 20 | 350 | 1.6 | 6.4 | 0.00 | 0.00 | 0.00 | 58 | 1014.6 |
| 20260506170004 | 20 | 331 | 1.6 | 8.0 | 0.00 | 0.00 | 0.00 | 56 | 1014.7 |
| 20260506165504 | 20 | 324 | 1.6 | 12.9 | 0.00 | 0.00 | 0.00 | 55 | 1014.5 |
| 20260506165004 | 21 | 314 | 3.2 | 12.9 | 0.00 | 0.00 | 0.00 | 54 | 1014.7 |
| 20260506164504 | 21 | 322 | 3.2 | 12.9 | 0.00 | 0.00 | 0.00 | 53 | 1014.6 |
| 20260506164003 | 21 | 329 | 3.2 | 8.0 | 0.00 | 0.00 | 0.00 | 51 | 1014.6 |
| 20260506163503 | 22 | 357 | 3.2 | 8.0 | 0.00 | 0.00 | 0.00 | 49 | 1014.5 |
| 20260506163005 | 22 | 27 | 3.2 | 6.4 | 0.00 | 0.00 | 0.00 | 48 | 1014.6 |
| 20260506162504 | 22 | 4 | 1.6 | 6.4 | 0.00 | 0.00 | 0.00 | 47 | 1014.4 |
| 20260506162003 | 22 | 349 | 3.2 | 6.4 | 0.00 | 0.00 | 0.00 | 47 | 1014.3 |
| 20260506161504 | 22 | 352 | 4.8 | 9.7 | 0.00 | 0.00 | 0.00 | 46 | 1014.4 |
| 20260506161004 | 23 | 339 | 4.8 | 9.7 | 0.00 | 0.00 | 0.00 | 46 | 1014.4 |
| 20260506160005 | 23 | 344 | 6.4 | 11.3 | 0.00 | 0.00 | 0.00 | 44 | 1014.5 |
| 20260506155503 | 24 | 355 | 6.4 | 12.9 | 0.00 | 0.00 | 0.00 | 43 | 1014.2 |
| 20260506155004 | 24 | 330 | 4.8 | 12.9 | 0.00 | 0.00 | 0.00 | 41 | 1014.4 |
| 20260506154003 | 24 | 323 | 4.8 | 9.7 | 0.00 | 0.00 | 0.00 | 42 | 1014.4 |
| 20260506153504 | 24 | 330 | 3.2 | 9.7 | 0.00 | 0.00 | 0.00 | 41 | 1014.3 |
| 20260506153004 | 24 | 319 | 3.2 | 8.0 | 0.00 | 0.00 | 0.00 | 40 | 1014.5 |
| 20260506152504 | 24 | 335 | 3.2 | 9.7 | 0.00 | 0.00 | 0.00 | 43 | 1014.5 |
| 20260506152004 | 24 | 27 | 6.4 | 12.9 | 0.00 | 0.00 | 0.00 | 43 | 1014.6 |
| 20260506151505 | 24 | 37 | 8.0 | 19.3 | 0.00 | 0.00 | 0.00 | 42 | 1014.3 |
| 20260506151004 | 24 | 35 | 9.7 | 19.3 | 0.00 | 0.00 | 0.00 | 41 | 1014.3 |
| 20260506150005 | 25 | 37 | 8.0 | 19.3 | 0.00 | 0.00 | 0.00 | 39 | 1014.2 |
| 20260506145503 | 25 | 43 | 9.7 | 17.7 | 0.00 | 0.00 | 0.00 | 37 | 1014.4 |
| 20260506145004 | 25 | 42 | 9.7 | 17.7 | 0.00 | 0.00 | 0.00 | 36 | 1014.4 |
| 20260506144504 | 25 | 45 | 9.7 | 17.7 | 0.00 | 0.00 | 0.00 | 36 | 1014.6 |
| 20260506144004 | 26 | 37 | 9.7 | 19.3 | 0.00 | 0.00 | 0.00 | 35 | 1014.4 |
| 20260506143504 | 26 | 29 | 9.7 | 20.9 | 0.00 | 0.00 | 0.00 | 32 | 1014.5 |
| 20260506143004 | 26 | 44 | 9.7 | 20.9 | 0.00 | 0.00 | 0.00 | 32 | 1014.5 |
| 20260506142004 | 26 | 44 | 9.7 | 19.3 | 0.00 | 0.00 | 0.00 | 32 | 1014.5 |
| 20260506141505 | 26 | 63 | 9.7 | 17.7 | 0.00 | 0.00 | 0.00 | 32 | 1014.3 |
| 20260506140503 | 27 | 49 | 9.7 | 19.3 | 0.00 | 0.00 | 0.00 | 29 | 1014.5 |
| 20260506140005 | 27 | 50 | 9.7 | 20.9 | 0.00 | 0.00 | 0.00 | 28 | 1014.4 |
| 20260506135503 | 27 | 66 | 9.7 | 20.9 | 0.00 | 0.00 | 0.00 | 27 | 1014.5 |
| 20260506135004 | 27 | 70 | 9.7 | 17.7 | 0.00 | 0.00 | 0.00 | 24 | 1014.5 |
| 20260506134504 | 27 | 71 | 9.7 | 20.9 | 0.00 | 0.00 | 0.00 | 23 | 1014.3 |
| 20260506134004 | 27 | 62 | 9.7 | 20.9 | 0.00 | 0.00 | 0.00 | 24 | 1014.4 |
| 20260506133503 | 27 | 67 | 9.7 | 17.7 | 0.00 | 0.00 | 0.00 | 24 | 1014.6 |
| 20260506133004 | 27 | 64 | 9.7 | 19.3 | 0.00 | 0.00 | 0.00 | 23 | 1014.6 |
| 20260506132504 | 27 | 64 | 9.7 | 19.3 | 0.00 | 0.00 | 0.00 | 22 | 1014.6 |
| 20260506131504 | 27 | 55 | 9.7 | 17.7 | 0.00 | 0.00 | 0.00 | 22 | 1014.6 |
| 20260506130504 | 27 | 32 | 9.7 | 17.7 | 0.00 | 0.00 | 0.00 | 24 | 1014.5 |
| 20260506130005 | 27 | 43 | 8.0 | 17.7 | 0.00 | 0.00 | 0.00 | 23 | 1014.6 |
| 20260506125004 | 27 | 71 | 9.7 | 16.1 | 0.00 | 0.00 | 0.00 | 23 | 1015.0 |
| 20260506124504 | 27 | 71 | 9.7 | 16.1 | 0.00 | 0.00 | 0.00 | 23 | 1014.9 |
| 20260506124004 | 27 | 46 | 9.7 | 19.3 | 0.00 | 0.00 | 0.00 | 22 | 1014.7 |
| 20260506123504 | 27 | 30 | 9.7 | 20.9 | 0.00 | 0.00 | 0.00 | 21 | 1015.0 |
| 20260506123004 | 27 | 29 | 9.7 | 20.9 | 0.00 | 0.00 | 0.00 | 23 | 1015.1 |
| 20260506122003 | 27 | 24 | 8.0 | 16.1 | 0.00 | 0.00 | 0.00 | 21 | 1015.1 |
| 20260506121504 | 28 | 35 | 8.0 | 16.1 | 0.00 | 0.00 | 0.00 | 20 | 1015.1 |
| 20260506121003 | 28 | 30 | 9.7 | 20.9 | 0.00 | 0.00 | 0.00 | 21 | 1015.3 |
| 20260506120503 | 28 | 26 | 9.7 | 20.9 | 0.00 | 0.00 | 0.00 | 21 | 1015.1 |
| 20260506120004 | 28 | 36 | 8.0 | 19.3 | 0.00 | 0.00 | 0.00 | 21 | 1015.2 |
| 20260506115004 | 28 | 46 | 8.0 | 17.7 | 0.00 | 0.00 | 0.00 | 20 | 1015.1 |
| 20260506114504 | 27 | 49 | 8.0 | 17.7 | 0.00 | 0.00 | 0.00 | 21 | 1015.1 |
| 20260506114003 | 27 | 55 | 8.0 | 19.3 | 0.00 | 0.00 | 0.00 | 21 | 1015.4 |
| 20260506113504 | 27 | 55 | 8.0 | 20.9 | 0.00 | 0.00 | 0.00 | 21 | 1015.3 |
| 20260506113005 | 27 | 52 | 8.0 | 20.9 | 0.00 | 0.00 | 0.00 | 21 | 1015.5 |
| 20260506112504 | 27 | 44 | 9.7 | 17.7 | 0.00 | 0.00 | 0.00 | 20 | 1015.2 |
| 20260506112003 | 27 | 27 | 9.7 | 16.1 | 0.00 | 0.00 | 0.00 | 22 | 1015.3 |
| 20260506111504 | 27 | 46 | 9.7 | 17.7 | 0.00 | 0.00 | 0.00 | 22 | 1015.5 |
| 20260506111004 | 27 | 44 | 8.0 | 17.7 | 0.00 | 0.00 | 0.00 | 20 | 1015.7 |
| 20260506110504 | 27 | 32 | 8.0 | 17.7 | 0.00 | 0.00 | 0.00 | 21 | 1015.5 |
| 20260506110004 | 27 | 59 | 9.7 | 17.7 | 0.00 | 0.00 | 0.00 | 21 | 1015.5 |
| 20260506105503 | 27 | 68 | 9.7 | 19.3 | 0.00 | 0.00 | 0.00 | 21 | 1015.6 |
| 20260506105004 | 27 | 51 | 9.7 | 19.3 | 0.00 | 0.00 | 0.00 | 21 | 1015.5 |
| 20260506104504 | 27 | 49 | 9.7 | 20.9 | 0.00 | 0.00 | 0.00 | 21 | 1015.3 |
| 20260506104003 | 27 | 37 | 8.0 | 20.9 | 0.00 | 0.00 | 0.00 | 22 | 1015.7 |
| 20260506103504 | 27 | 33 | 8.0 | 20.9 | 0.00 | 0.00 | 0.00 | 22 | 1015.5 |
| 20260506103005 | 27 | 42 | 8.0 | 19.3 | 0.00 | 0.00 | 0.00 | 22 | 1015.6 |
| 20260506102504 | 27 | 22 | 8.0 | 19.3 | 0.00 | 0.00 | 0.00 | 23 | 1015.6 |
| 20260506102003 | 27 | 5 | 9.7 | 19.3 | 0.00 | 0.00 | 0.00 | 25 | 1015.9 |
| 20260506101504 | 27 | 17 | 8.0 | 20.9 | 0.00 | 0.00 | 0.00 | 26 | 1015.7 |
| 20260506100503 | 27 | 49 | 8.0 | 20.9 | 0.00 | 0.00 | 0.00 | 28 | 1015.7 |
| 20260506100005 | 27 | 46 | 8.0 | 17.7 | 0.00 | 0.00 | 0.00 | 29 | 1015.6 |
| 20260506095503 | 27 | 23 | 8.0 | 17.7 | 0.00 | 0.00 | 0.00 | 29 | 1015.8 |
| 20260506095004 | 27 | 14 | 9.7 | 19.3 | 0.00 | 0.00 | 0.00 | 29 | 1015.7 |
| 20260506094004 | 27 | 24 | 8.0 | 14.5 | 0.00 | 0.00 | 0.00 | 28 | 1016.0 |
| 20260506093004 | 27 | 30 | 4.8 | 12.9 | 0.00 | 0.00 | 0.00 | 28 | 1016.1 |
| 20260506092503 | 27 | 8 | 4.8 | 11.3 | 0.00 | 0.00 | 0.00 | 28 | 1016.0 |
| 20260506091504 | 28 | 30 | 4.8 | 11.3 | 0.00 | 0.00 | 0.00 | 27 | 1016.0 |
| 20260506091003 | 28 | 5 | 3.2 | 9.7 | 0.00 | 0.00 | 0.00 | 29 | 1016.2 |
| 20260506090504 | 27 | 71 | 3.2 | 9.7 | 0.00 | 0.00 | 0.00 | 28 | 1016.1 |
| 20260506090004 | 27 | 176 | 4.8 | 11.3 | 0.00 | 0.00 | 0.00 | 25 | 1016.1 |
| 20260506085504 | 28 | 221 | 4.8 | 11.3 | 0.00 | 0.00 | 0.00 | 25 | 1016.2 |
| 20260506085003 | 28 | 131 | 1.6 | 8.0 | 0.00 | 0.00 | 0.00 | 27 | 1016.2 |
| 20260506084504 | 27 | 157 | 1.6 | 6.4 | 0.00 | 0.00 | 0.00 | 29 | 1016.0 |
| 20260506084004 | 27 | 226 | 3.2 | 11.3 | 0.00 | 0.00 | 0.00 | 28 | 1016.1 |
| 20260506083503 | 27 | 218 | 3.2 | 11.3 | 0.00 | 0.00 | 0.00 | 27 | 1016.1 |
| 20260506083004 | 27 | 178 | 1.6 | 9.7 | 0.00 | 0.00 | 0.00 | 28 | 1016.1 |
| 20260506082504 | 27 | 210 | 1.6 | 9.7 | 0.00 | 0.00 | 0.00 | 29 | 1016.0 |
| 20260506082004 | 27 | 282 | 1.6 | 14.5 | 0.00 | 0.00 | 0.00 | 31 | 1016.3 |
| 20260506081504 | 27 | 277 | 1.6 | 14.5 | 0.00 | 0.00 | 0.00 | 31 | 1016.3 |
| 20260506081003 | 26 | 232 | 3.2 | 8.0 | 0.00 | 0.00 | 0.00 | 31 | 1016.1 |
| 20260506080504 | 26 | 251 | 3.2 | 8.0 | 0.00 | 0.00 | 0.00 | 32 | 1016.2 |
| 20260506073504 | 25 | 316 | 1.6 | 6.4 | 0.00 | 0.00 | 0.00 | 41 | 1016.0 |
| 20260506072503 | 24 | 269 | 1.6 | 8.0 | 0.00 | 0.00 | 0.00 | 41 | 1016.0 |
| 20260506072004 | 24 | 272 | 1.6 | 6.4 | 0.00 | 0.00 | 0.00 | 44 | 1015.9 |
| 20260506071504 | 23 | 274 | 1.6 | 6.4 | 0.00 | 0.00 | 0.00 | 46 | 1016.1 |
| 20260506071003 | 23 | 237 | 1.6 | 6.4 | 0.00 | 0.00 | 0.00 | 46 | 1016.1 |
| 20260506070504 | 22 | 209 | 3.2 | 11.3 | 0.00 | 0.00 | 0.00 | 47 | 1015.9 |
| 20260506062004 | 20 | 207 | 3.2 | 6.4 | 0.00 | 0.00 | 0.00 | 58 | 1016.2 |
| 20260506061504 | 20 | 225 | 1.6 | 6.4 | 0.00 | 0.00 | 0.00 | 59 | 1016.3 |
| 20260506061003 | 19 | 217 | 3.2 | 6.4 | 0.00 | 0.00 | 0.00 | 60 | 1016.2 |
| 20260506060504 | 18 | 216 | 3.2 | 6.4 | 0.00 | 0.00 | 0.00 | 61 | 1016.0 |
| 20260506051004 | 17 | 239 | 1.6 | 6.4 | 0.00 | 0.00 | 0.00 | 67 | 1016.1 |
| 20260506050503 | 16 | 226 | 1.6 | 8.0 | 0.00 | 0.00 | 0.00 | 67 | 1016.1 |
| 20260506044504 | 15 | 221 | 0.0 | 6.4 | 0.00 | 0.00 | 0.00 | 70 | 1015.8 |
| 20260506043503 | 15 | 231 | 1.6 | 6.4 | 0.00 | 0.00 | 0.00 | 71 | 1015.6 |
| 20260506043004 | 14 | 231 | 1.6 | 6.4 | 0.00 | 0.00 | 0.00 | 71 | 1015.7 |
| 20260506042504 | 14 | 230 | 1.6 | 6.4 | 0.00 | 0.00 | 0.00 | 71 | 1015.7 |
| 20260506042004 | 13 | 250 | 0.0 | 6.4 | 0.00 | 0.00 | 0.00 | 72 | 1016.0 |
| 20260506041504 | 13 | 249 | 0.0 | 6.4 | 0.00 | 0.00 | 0.00 | 72 | 1015.8 |
| 20260506041004 | 13 | 231 | 1.6 | 6.4 | 0.00 | 0.00 | 0.00 | 71 | 1015.7 |
| 20260506040503 | 13 | 233 | 1.6 | 6.4 | 0.00 | 0.00 | 0.00 | 71 | 1015.6 |
| 20260506040004 | 13 | 243 | 0.0 | 6.4 | 0.00 | 0.00 | 0.00 | 72 | 1015.6 |
| 20260506035504 | 13 | 266 | 0.0 | 6.4 | 0.00 | 0.00 | 0.00 | 72 | 1015.6 |
| 20260506035003 | 13 | 249 | 1.6 | 6.4 | 0.00 | 0.00 | 0.00 | 72 | 1015.6 |
| 20260506034505 | 12 | 237 | 1.6 | 8.0 | 0.00 | 0.00 | 0.00 | 73 | 1015.4 |
| 20260506034004 | 12 | 263 | 1.6 | 8.0 | 0.00 | 0.00 | 0.00 | 73 | 1015.5 |
| 20260506033503 | 12 | 271 | 1.6 | 6.4 | 0.00 | 0.00 | 0.00 | 73 | 1015.3 |
| 20260506033005 | 12 | 273 | 0.0 | 6.4 | 0.00 | 0.00 | 0.00 | 73 | 1015.4 |
| 20260506032503 | 12 | 250 | 1.6 | 6.4 | 0.00 | 0.00 | 0.00 | 74 | 1015.3 |
| 20260506031504 | 12 | 252 | 0.0 | 6.4 | 0.00 | 0.00 | 0.00 | 75 | 1015.2 |
| 20260506031003 | 12 | 247 | 0.0 | 6.4 | 0.00 | 0.00 | 0.00 | 75 | 1015.2 |
| 20260506030004 | 12 | 265 | 1.6 | 6.4 | 0.00 | 0.00 | 0.00 | 76 | 1015.3 |
| 20260506025504 | 12 | 285 | 1.6 | 6.4 | 0.00 | 0.00 | 0.00 | 76 | 1015.1 |
| 20260506025003 | 11 | 289 | 1.6 | 4.8 | 0.00 | 0.00 | 0.00 | 76 | 1015.2 |
| 20260506024504 | 11 | 279 | 0.0 | 6.4 | 0.00 | 0.00 | 0.00 | 76 | 1015.1 |
| 20260506023504 | 11 | 234 | 0.0 | 4.8 | 0.00 | 0.00 | 0.00 | 77 | 1015.2 |
| 20260506023004 | 11 | 236 | 1.6 | 4.8 | 0.00 | 0.00 | 0.00 | 77 | 1015.3 |
| 20260506022504 | 11 | 223 | 1.6 | 6.4 | 0.00 | 0.00 | 0.00 | 77 | 1015.3 |
| 20260506022004 | 11 | 223 | 1.6 | 6.4 | 0.00 | 0.00 | 0.00 | 77 | 1015.2 |
| 20260506021003 | 11 | 219 | 0.0 | 6.4 | 0.00 | 0.00 | 0.00 | 77 | 1015.4 |
| 20260506020503 | 11 | 194 | 0.0 | 3.2 | 0.00 | 0.00 | 0.00 | 77 | 1015.2 |
| 20260506020004 | 11 | 181 | 0.0 | 1.6 | 0.00 | 0.00 | 0.00 | 77 | 1015.5 |
| 20260506015504 | 11 | 191 | 0.0 | 3.2 | 0.00 | 0.00 | 0.00 | 77 | 1015.4 |
| 20260506015005 | 11 | 200 | 0.0 | 4.8 | 0.00 | 0.00 | 0.00 | 77 | 1015.3 |
| 20260506014004 | 10 | 200 | 1.6 | 6.4 | 0.00 | 0.00 | 0.00 | 77 | 1015.3 |
| 20260506013504 | 10 | 225 | 0.0 | 4.8 | 0.00 | 0.00 | 0.00 | 76 | 1015.5 |
| 20260506013004 | 10 | 0 | 0.0 | 0.0 | 0.00 | 0.00 | 0.00 | 76 | 1015.3 |
| 20260506012504 | 10 | 0 | 0.0 | 0.0 | 0.00 | 0.00 | 0.00 | 75 | 1015.4 |
| 20260506012003 | 10 | 0 | 0.0 | 0.0 | 0.00 | 0.00 | 0.00 | 75 | 1015.3 |
| 20260506011004 | 11 | 0 | 0.0 | 0.0 | 0.00 | 0.00 | 0.00 | 75 | 1015.4 |
| 20260506010503 | 11 | 93 | 0.0 | 4.8 | 0.00 | 0.00 | 0.00 | 75 | 1015.4 |
| 20260506010004 | 11 | 59 | 0.0 | 4.8 | 0.00 | 0.00 | 0.00 | 75 | 1015.4 |
| 20260506005503 | 11 | 64 | 0.0 | 4.8 | 0.00 | 0.00 | 0.00 | 75 | 1015.5 |
| 20260506005004 | 11 | 109 | 0.0 | 3.2 | 0.00 | 0.00 | 0.00 | 74 | 1015.5 |
| 20260506004004 | 11 | 162 | 0.0 | 4.8 | 0.00 | 0.00 | 0.00 | 74 | 1015.4 |
| 20260506003504 | 11 | 177 | 0.0 | 4.8 | 0.00 | 0.00 | 0.00 | 75 | 1015.3 |
| 20260506003004 | 11 | 185 | 0.0 | 4.8 | 0.00 | 0.00 | 0.00 | 75 | 1015.3 |
| 20260506002504 | 11 | 181 | 0.0 | 6.4 | 0.00 | 0.00 | 0.00 | 76 | 1015.5 |
| 20260506002004 | 11 | 169 | 0.0 | 6.4 | 0.00 | 0.00 | 0.00 | 76 | 1015.4 |
| 20260506001504 | 11 | 83 | 0.0 | 1.6 | 0.00 | 0.00 | 0.00 | 75 | 1015.5 |
| 20260506001004 | 11 | 0 | 0.0 | 0.0 | 0.00 | 0.00 | 0.00 | 75 | 1015.3 |
| 20260506000504 | 11 | 0 | 0.0 | 0.0 | 0.00 | 0.00 | 0.00 | 75 | 1015.5 |
| 20260506000004 | 11 | 341 | 0.0 | 4.8 | 0.00 | 0.00 | 0.00 | 74 | 1015.3 |
| 20260505235503 | 11 | 340 | 0.0 | 4.8 | 0.00 | 0.00 | 0.00 | 74 | 1015.4 |
| 20260505235004 | 11 | 278 | 0.0 | 4.8 | 0.00 | 0.00 | 0.00 | 74 | 1015.3 |
| 20260505234504 | 11 | 131 | 0.0 | 4.8 | 0.00 | 0.00 | 0.00 | 74 | 1015.5 |
| 20260505233503 | 11 | 107 | 0.0 | 4.8 | 0.00 | 0.00 | 0.00 | 73 | 1015.4 |